Regional Weather Roundup
Issued by NWS

Home | Current Version | Previous Version | Text Only | Print | Product List | Glossary On
Versions: 1 2 3 4 5 6 7 8 9 10 11 12 13 14 15 16 17 18 19 20 21 22 23 24 25 26 27 28 29 30 31 32 33 34 35 36 37 38 39 40 41 42 43 44 45 46 47 48 49 50
000
ASUS43 KLOT 010021
RWRIL

ILLINOIS REGIONAL WEATHER ROUNDUP
NATIONAL WEATHER SERVICE CHICAGO/ROMEOVILLE IL
700 PM CDT FRI JUL 31 2015

NOTE: "FAIR" INDICATES FEW OR NO CLOUDS BELOW 12,000 FEET WITH NO
SIGNIFICANT WEATHER AND/OR OBSTRUCTIONS TO VISIBILITY.

* THESE STATIONS ARE NOT UNDER NWS QUALITY CONTROL. THEY ALSO MAY NOT
  REPORT WEATHER SUCH AS PRECIPITATION OR FOG.

ILZ001-002-007-009-015-016-024-010100-
NORTHWEST ILLINOIS

CITY           SKY/WX    TMP DP  RH WIND       PRES   REMARKS
MOLINE         SUNNY     83  54  36 NW13G23   30.00S HX  82
6HR MIN TEMP:  83; 6HR MAX TEMP:  89;

STERLING*      SUNNY     79  61  53 W8        29.95S HX  80
SAVANNA*       SUNNY     82  52  35 W9G17     29.98S HX  81
$$

ILZ003-004-008-010-011-017-018-010100-
NORTH CENTRAL ILLINOIS

CITY           SKY/WX    TMP DP  RH WIND       PRES   REMARKS
ROCKFORD       SUNNY     81  47  30 NW15      29.97S HX  80
6HR MIN TEMP:  81; 6HR MAX TEMP:  87;

FREEPORT*      SUNNY     78  52  40 NW9G18    29.99S
ROCHELLE*      SUNNY     79  53  40 NW14      29.97F
DE KALB*       SUNNY     78  51  39 NW13      29.97S
PERU*          SUNNY     80  55  40 W13       29.99R HX  80
$$

ILZ005-006-012>014-019>023-010100-
NORTHEAST ILLINOIS

CITY           SKY/WX    TMP DP  RH WIND       PRES   REMARKS
CHICAGO-OHARE  SUNNY     82  48  30 NW17      29.93S HX  81
6HR MIN TEMP:  82; 6HR MAX TEMP:  87;

CHICAGO-MIDWAY MOSUNNY   84  47  27 NW15      29.93S HX  82
6HR MIN TEMP:  84; 6HR MAX TEMP:  90;

AURORA         SUNNY     79  54  41 NW9       29.96S
6HR MIN TEMP:  79; 6HR MAX TEMP:  85;

LANSING*       SUNNY     82  47  29 W15       29.94R HX  80
JOLIET*        SUNNY     83  54  35 NW6       29.95S HX  82
WAUKEGAN       SUNNY     78  49  35 NW8       29.93S
6HR MIN TEMP:  78; 6HR MAX TEMP:  84;

DUPAGE AIRPORT SUNNY     81  50  33 NW12      29.95S HX  80
6HR MIN TEMP:  81; 6HR MAX TEMP:  86;

KANKAKEE*      SUNNY     82  56  40 W9G17     29.96S HX  82
WHEELING       SUNNY     81  45  28 NW15G23   29.94S HX  80
6HR MIN TEMP:  81; 6HR MAX TEMP:  87;

MORRIS*        SUNNY     80  57  46 NW10      29.95S HX  80
ROMEOVILLE*    SUNNY     81  47  30 NW14      29.95S HX  80
NORTHERLY ISL    N/A     82  46  28 NW13        N/A  HX  80
$$

LMZ740>746-010100-
SOUTHERN LAKE MICHIGAN

STATION/POSITION SKY/WX   TEMP    WIND        PRES    VSBY  WAVE
                          AIR SEA DIR/SP/G                  HT/PER
                          (F)     (DEG/KT/KT) (MB)    (MI)  (FT/S)
HARRISON CRIB              80     310/ 19/ 23   N/A
BURNHAM HARBOR             82     310/  9/ 19   N/A
CALUMET HARBOR             84     300/ 11/ 19   N/A
BURNS HARBOR               77     330/  9/ 11 1013.9S
MICHIGAN CITY              76     330/ 12/ 13   N/A
MICHIGAN CITY 6N           76 74  360/  8/ 10   N/A           3/ 4
ST. JOSEPH                 75 74  360/  4/  6   N/A           1/ 3
$$

ILZ025>027-034>036-040-047-049-050-058-095>099-010100-
WEST-CENTRAL ILLINOIS

CITY           SKY/WX    TMP DP  RH WIND       PRES   REMARKS
QUINCY         SUNNY     83  66  56 W5        30.02F HX  85
GALESBURG*     SUNNY     82  64  56 W6        30.01S HX  83
MACOMB*        SUNNY     82  67  59 NW5       30.04R HX  84
JACKSONVILLE*  SUNNY     86  71  59 W3        30.01F HX  91
PITTSFIELD*    SUNNY     84  67  57 W3        30.03F HX  86
$$

ILZ028>032-037-038-041>044-048-051>054-059>061-010100-
CENTRAL ILLINOIS

CITY           SKY/WX    TMP DP  RH WIND       PRES   REMARKS
PONTIAC        SUNNY     81  65  58 NW6       29.98F HX  82
BLOOMINGTON    SUNNY     85  60  42 W12       30.01F HX  85
DECATUR        SUNNY     86  61  42 N6        30.00F HX  86
PEORIA         SUNNY     86  61  42 W5        30.00S HX  86
6HR MIN TEMP:  86; 6HR MAX TEMP:  90;

LACON*         SUNNY     82  60  47 NW7       29.98S HX  82
LINCOLN*       SUNNY     86  62  43 CALM      29.99S HX  86
SPRINGFIELD    SUNNY     86  70  58 W6        30.00F HX  90
6HR MIN TEMP:  85; 6HR MAX TEMP:  91;

TAYLORVILLE    MOSUNNY   82  70  65 W5        30.00F HX  86
$$

ILZ033-039-045-046-055>057-062-063-010100-
EAST-CENTRAL ILLINOIS

CITY           SKY/WX    TMP DP  RH WIND       PRES   REMARKS
CHAMPAIGN      SUNNY     82  66  58 W3        30.00S HX  84
DANVILLE*      SUNNY     79  64  60 W5        29.95S HX  81
RANTOUL*       SUNNY    N/A N/A N/A W10       29.99S
MATTOON        SUNNY     86  60  41 N5        29.99F HX  86
PARIS*         SUNNY     82  61  48 NW6       30.00S HX  83
$$

ILZ079-100>102-010100-
SOUTHWEST ILLINOIS

CITY           SKY/WX    TMP DP  RH WIND       PRES   REMARKS
BELLEVILLE     SUNNY     88  67  48 CALM      30.00F HX  90
CAHOKIA*       SUNNY     91  57  31 W6        30.00F HX  89
SPARTA*        SUNNY     88  65  47 CALM      30.02F HX  89
$$

ILZ064>066-069>071-074>076-080>082-084>086-088>090-092>094-010100-
SOUTH-CENTRAL ILLINOIS

CITY           SKY/WX    TMP DP  RH WIND       PRES   REMARKS
CARBONDALE     SUNNY     87  67  51 W3        30.01F HX  90
6HR MIN TEMP:  87; 6HR MAX TEMP:  90;

CAIRO*         SUNNY     85  71  61 NW3       30.01F HX  90
EFFINGHAM*     SUNNY     86  62  45 W5        30.01F HX  86
MARION         SUNNY     86  68  54 CALM      30.02F HX  89
MT. VERNON     SUNNY     86  64  48 CALM      30.01F HX  87
CENTRALIA*     SUNNY     86  63  46 W7        30.01F HX  87
SALEM*         SUNNY     87  66  48 NW3       30.01S HX  89
METROPOLIS*    SUNNY     86  71  62 CALM      30.01F HX  91
$$

ILZ067-068-072-073-078-083-087-091-010100-
SOUTHEAST ILLINOIS

CITY           SKY/WX    TMP DP  RH WIND       PRES   REMARKS
LAWRENCEVILLE  SUNNY     86  66  51 NW6       29.99F HX  88
FLORA*         SUNNY     86  64  47 NW5       30.00F HX  87
FAIRFIELD*     SUNNY     85  69  60 CALM      29.99F HX  89
HARRISBURG*    SUNNY     86  67  51 CALM      30.02S HX  89
ROBINSON*      SUNNY     82  67  60 CALM      30.00S HX  85
CARMI*         SUNNY     85  66  52 CALM      29.99F HX  87
$$

ABBREVIATIONS USED IN REMARKS
   TC - TEMPERATURE IN CELSIUS
  WCI - WIND CHILL INDEX
   HX - HEAT INDEX
  VSB - VISIBILITY
$$



USA.gov is the U.S. government's official web portal to all federal, state and local government web resources and services.